Regional Weather Roundup
Issued by NWS New Orleans/Baton Rouge, LA

Home | Current Version | Previous Version | Graphics & Text | Print | Product List | Glossary On
Versions: 1 2 3 4 5 6 7 8 9 10 11 12 13 14 15 16 17 18 19 20 21 22 23 24 25 26 27 28 29 30 31 32 33 34 35 36 37 38 39 40 41 42 43 44 45 46 47 48 49 50
840
ASUS44 KLIX 291511
RWRLIX
NEW ORLEANS REGIONAL WEATHER ROUNDUP
NATIONAL WEATHER SERVICE NEW ORLEANS LA
1000 AM CDT SUN MAR 29 2015

NOTE: "FAIR" INDICATES FEW OR NO CLOUDS BELOW 12,000 FEET WITH NO
      SIGNIFICANT WEATHER AND/OR OBSTRUCTIONS TO VISIBILITY.
      SKY/WX - SKY CONDITION AND SIGNIFICANT WEATHER.
      TMP - AIR TEMPERATURE.     DP    - DEWPOINT TEMPERATURE.
      RH  - RELATIVE HUMIDITY.   PRES  - PRESSURE.
      HI  - HEAT INDEX.          WCI   - WIND CHILL INDEX.

*  THESE STATIONS ARE NOT NWS OR FAA STATIONS AND ARE NOT UNDER
   NWS QUALITY CONTROL.

LAZ038-040-048-061>063-065>067-069-291600-
SOUTHEAST LOUISIANA

CITY           SKY/WX    TMP DP  RH WIND       PRES   REMARKS
N.O. AUDUBON   NOT AVBL
N.O. INTL ARPT MOSUNNY   67  53  61 SE18      30.30R
N.O. LAKEFRONT MOSUNNY   69  52  54 SE16      30.31R
SLIDELL        SUNNY     64  53  67 SE9       30.31R
BATON ROUGE    SUNNY     62  51  67 SE10      30.29R
BOOTHVILLE     MOSUNNY   68  59  73 E9        30.33R
BELLE CHASSE   MOSUNNY   67  53  61 SE14      30.31R
BOGALUSA*        N/A     58  41  53 SE8       30.34R
GALLIANO*      MOSUNNY   70  60  71 SE5       30.30R
NEW ROADS*       N/A     60  50  70 E9        30.28S
GONZALES*        N/A     66  57  72 E7        30.29R
HAMMOND*       SUNNY     64  50  59 SE13      30.32S
HOUMA*         MOSUNNY   70  63  78 SE9       30.30R
PORT FOURCHON* MOSUNNY   70  63  78 SE13      30.33R

$$

MSZ070-080>082-291600-
SOUTHERN MISSISSIPPI

CITY           SKY/WX    TMP DP  RH WIND       PRES   REMARKS
MCCOMB         SUNNY     56  43  61 SE12      30.30S
GULFPORT       SUNNY     60  49  66 E16       30.33R
BILOXI         SUNNY     61  48  63 SE14G21   30.33R
PASCAGOULA     SUNNY     60  42  51 SE10      30.35S
STENNIS ARPT*  SUNNY     63  48  59 E16       30.32S

$$

COASTAL OBSERVATIONS
LAKE AND NEARSHORE STATIONS

STATION/POSITION TIME  TEMP    WIND        PRES    WAVE
                       AIR SEA DIR/SP/G            HT/PER
                 (UTC) (F)     (DEG/KT/KT) (MB)    (FT/S)
PASCAGOULA       1400   56     100/ 13/ 20 1026.9
WAVELAND YACHT   1400   57 62  120/ 15/ 18 1026.3
GRAND ISLE       1412   64 66  100/  7/ 13 1025.5
SOUTHWEST PASS   1412   64 53  110/ 12/ 13 1026.4
NEW CANAL        1412   65     140/  5/ 14 1026.1
SHELL BEACH      1400   64 65  110/ 16/ 21 1025.9

OFFSHORE STATIONS

STATION/POSITION TIME  TEMP    WIND        PRES    WAVE
                       AIR SEA DIR/SP/G            HT/PER
                 (UTC) (F)     (DEG/KT/KT) (MB)    (FT/S)
64 S DAUPHIN ISL 1450   66 71  120/ 14/ 17 1027.4    2/ 4

$$




USA.gov is the U.S. government's official web portal to all federal, state and local government web resources and services.